Theta_e
338 338 340 339 338 337 336 335 335 335 333 330 328 329 329 330 330 327 327 325 323 322 320 318 318 317 315 313 312 311 310 309 309 309 310 310 310 310 307 310 312 313 314 314 317 321 325 329 329 328 326 325 326 326 325 325 324 323 325 324 323 324 324 323 321 321 321 321 322 322 322 322 321 322 323 324 324 325 324 325 328 328 328 328 329
336 336 334 332 331 330 330 330 333 334 334 331 330 329 329 327 326 325 325 325 325 324 321 321 319 318 316 316 314 311 310 309 309 309 309 310 310 311 306 308 310 313 313 314 315 318 321 326 329 329 331 334 334 330 326 325 325 324 324 324 325 325 325 323 323 322 321 321 321 321 321 321 321 321 322 322 323 324 323 323 324 325 325 325 326
335 335 332 329 329 330 328 329 333 331 331 332 330 328 325 326 325 325 323 324 325 321 322 323 321 319 316 316 313 313 312 312 312 310 309 309 310 310 313 306 306 310 312 313 314 316 319 322 325 329 330 332 333 334 333 327 326 326 324 323 324 325 326 326 325 322 322 322 321 321 321 320 321 321 321 321 322 322 323 322 322 323 323 324 324
329 331 331 328 327 327 327 327 327 326 325 325 323 323 321 319 318 317 320 322 319 319 320 322 321 318 317 314 313 314 314 314 313 312 310 310 309 309 309 310 308 307 310 312 313 314 316 318 321 324 326 328 330 331 332 329 328 328 327 326 324 326 327 327 326 324 324 324 322 322 322 321 319 320 320 320 321 320 321 321 321 321 322 322 323
326 325 324 323 322 322 321 321 321 323 322 321 322 322 320 319 317 316 316 317 320 319 320 320 320 318 317 315 316 315 314 314 313 311 310 309 308 308 308 308 309 309 307 308 311 313 314 316 318 320 322 324 326 328 330 330 328 327 327 328 328 328 329 330 327 326 325 325 324 323 323 322 320 319 320 320 320 321 320 319 320 321 321 321 321
324 322 323 323 321 320 319 318 318 318 319 320 319 318 318 317 316 319 315 317 317 316 318 320 319 319 318 316 316 315 314 313 311 309 308 308 307 308 307 307 307 308 310 309 308 310 313 314 316 317 319 322 323 323 327 328 329 329 328 328 329 329 330 330 329 328 325 325 325 323 322 322 321 320 320 320 320 319 320 319 319 320 321 320 320
320 320 320 320 318 316 316 317 318 319 319 319 319 319 318 316 316 319 317 315 314 312 313 316 316 317 316 315 315 314 313 312 310 309 308 308 307 307 307 306 306 307 308 307 308 309 309 311 313 314 316 317 318 321 323 326 327 328 328 328 329 330 331 330 330 328 327 325 323 323 322 322 322 321 320 320 320 319 319 319 319 319 319 320 319
319 319 318 317 316 315 315 315 316 318 318 317 317 317 316 315 315 318 318 313 312 313 313 314 315 316 315 314 313 312 312 311 310 309 308 306 307 307 306 306 306 305 304 306 307 308 305 308 310 312 313 313 315 317 319 321 323 324 325 326 326 327 327 329 329 329 326 326 324 324 322 322 322 322 321 321 320 320 320 319 319 319 319 319 319
313 315 315 315 315 314 313 314 314 314 312 311 311 314 314 312 310 310 313 311 307 307 307 307 309 311 311 311 311 309 310 309 308 307 307 307 306 306 305 306 305 304 305 305 305 306 307 305 307 308 309 309 311 313 315 318 320 321 321 322 323 324 324 324 327 329 325 324 325 323 320 321 320 321 322 321 321 321 320 319 318 318 318 318 319
310 311 310 310 310 310 310 311 312 311 310 310 310 311 312 312 308 306 308 308 306 304 304 304 307 310 311 310 309 309 308 308 307 304 305 304 305 305 304 304 305 305 304 305 305 305 305 306 306 307 307 306 309 311 313 314 315 316 318 319 320 321 322 322 323 325 327 323 322 321 321 322 321 322 322 321 321 321 320 319 318 318 318 318 317
308 309 309 308 308 308 308 308 309 308 308 308 306 306 307 307 308 304 302 301 301 301 301 304 307 309 309 309 309 308 308 306 305 304 304 306 305 304 306 304 304 304 304 304 303 304 304 305 304 305 305 307 307 308 309 310 311 312 313 314 315 317 319 321 321 322 324 326 325 323 322 322 323 323 322 322 321 320 320 320 319 319 319 318 318
305 306 306 306 307 306 306 307 307 306 305 304 304 304 305 305 304 305 304 303 302 303 303 304 306 309 308 310 309 307 306 304 304 304 305 306 305 304 303 303 303 303 303 303 303 303 303 303 302 303 304 304 305 305 305 306 307 308 310 312 313 314 314 316 317 319 321 323 325 325 323 323 324 323 322 322 321 321 320 320 320 319 319 319 318
302 304 304 303 304 304 305 305 305 305 304 303 304 305 306 307 306 304 304 302 301 303 303 305 306 307 308 308 308 307 305 303 303 305 305 304 303 303 302 302 302 302 302 303 304 304 303 303 302 302 303 303 303 303 304 304 304 306 308 309 311 313 313 313 314 315 317 318 322 324 325 325 324 323 323 322 322 321 320 320 320 318 318 319 319
300 301 301 302 302 302 302 302 303 303 303 303 303 302 304 305 307 305 305 303 300 301 302 304 304 301 301 302 304 306 305 303 303 304 304 303 304 303 302 303 302 302 303 303 304 303 303 302 302 302 303 303 302 303 303 303 303 303 305 307 308 311 313 313 314 313 314 315 316 321 324 324 324 323 323 322 322 321 321 321 320 319 317 318 319
298 298 299 300 300 300 300 300 301 301 301 300 301 301 301 302 303 304 303 303 301 301 301 302 299 301 303 302 301 299 303 301 303 303 301 304 304 301 302 303 302 302 302 302 302 302 302 302 302 302 302 302 302 302 302 301 301 299 301 304 306 308 310 312 313 313 313 313 314 315 319 323 324 324 324 323 322 322 321 321 320 319 317 318 318
296 296 297 297 298 298 299 299 299 300 299 298 298 298 299 300 301 301 303 301 300 299 301 301 300 299 297 298 298 298 297 299 297 302 302 303 301 301 302 301 299 299 300 300 300 301 301 301 301 301 301 301 302 302 302 302 300 299 299 300 300 305 308 310 312 312 313 314 314 314 314 317 322 324 324 324 323 323 322 321 320 319 318 317 318
293 294 294 295 296 296 297 297 297 298 298 297 296 297 297 298 299 299 300 299 298 299 299 299 299 300 298 297 297 297 295 295 297 300 301 300 300 300 300 299 297 296 298 298 299 298 298 299 300 300 301 301 301 301 301 302 302 301 301 299 300 302 305 309 311 312 312 313 315 315 314 314 316 320 324 324 324 324 323 322 321 320 318 318 318
292 292 292 292 293 293 294 294 294 294 295 295 295 295 295 296 297 297 297 298 296 295 296 298 297 298 299 298 297 293 292 293 294 290 296 299 298 299 298 297 296 295 297 297 296 297 297 296 297 298 300 300 301 301 301 301 300 300 300 300 300 302 303 306 308 310 312 312 313 314 315 315 315 315 319 323 324 323 323 323 322 321 319 318 318
290 291 291 291 292 292 292 292 292 292 292 292 291 291 292 293 294 294 295 296 295 292 293 294 293 294 297 297 297 297 297 292 287 288 285 291 295 295 295 295 295 295 295 295 295 295 295 295 296 297 298 299 299 300 300 300 300 299 300 300 302 302 302 303 306 308 311 312 313 314 314 315 315 315 315 317 321 323 323 323 323 322 320 318 318
289 290 290 290 290 290 291 291 290 291 290 290 290 291 291 291 291 291 291 292 293 291 291 292 289 290 293 293 293 295 296 295 294 289 287 284 286 291 293 293 294 295 295 293 295 295 294 294 295 296 297 298 299 299 300 300 300 300 300 300 301 301 301 302 303 303 305 308 310 311 312 314 314 315 315 315 315 318 322 323 322 322 321 318 318
289 289 289 289 289 289 290 289 289 289 289 290 290 290 290 290 290 290 291 291 291 291 290 289 290 289 290 290 290 290 291 292 292 291 287 286 285 286 286 291 292 292 292 293 293 293 293 294 295 296 296 297 298 298 299 299 299 299 298 299 299 301 302 303 303 303 303 304 305 308 310 311 311 313 313 314 314 315 316 318 321 321 321 320 319
287 288 288 288 288 288 288 288 288 287 287 288 288 289 289 289 289 289 290 289 290 290 289 290 290 290 290 290 288 288 288 288 288 288 288 289 285 285 286 285 284 287 291 291 292 292 292 294 295 295 296 296 296 297 298 298 298 299 298 297 298 299 300 301 302 302 302 303 303 304 305 308 310 312 314 314 315 315 314 314 315 320 322 321 321
287 287 287 287 287 287 287 287 287 286 286 286 286 286 287 288 288 288 288 288 288 289 289 289 289 289 289 288 288 287 287 286 286 287 286 285 285 285 286 286 285 285 288 291 291 291 292 292 292 294 295 295 295 295 296 297 297 297 297 297 297 298 299 299 300 301 301 301 302 302 303 303 304 307 311 314 315 315 315 315 314 314 317 321 321
286 286 286 287 286 286 286 286 286 286 286 286 286 286 287 287 287 287 286 286 287 287 287 286 287 287 287 287 287 288 288 287 287 287 287 286 285 284 284 286 286 286 288 289 290 290 291 291 292 294 293 293 294 295 295 296 296 295 295 295 296 297 298 299 300 299 300 300 300 301 302 303 303 304 306 308 310 313 315 315 315 314 315 317 321
285 285 285 285 286 285 285 285 285 286 286 286 286 286 286 286 286 286 285 285 285 286 285 285 285 285 285 287 287 287 286 287 287 287 287 287 286 283 285 286 283 284 287 288 288 290 291 291 292 292 291 292 293 294 295 296 295 295 294 294 295 295 296 297 298 299 299 299 300 300 300 301 303 303 304 306 307 308 310 313 315 316 315 315 316
284 284 285 285 285 285 285 285 285 285 285 285 285 285 285 285 284 284 284 284 285 285 284 284 285 285 285 285 285 286 286 287 286 287 286 285 284 284 283 284 285 284 286 286 288 287 289 292 292 292 292 292 293 294 294 294 294 294 292 292 292 293 294 296 297 297 298 299 299 300 300 300 301 302 303 305 306 307 308 310 312 314 315 316 316
284 285 285 285 285 285 285 285 285 285 285 285 285 285 285 285 285 284 284 284 284 284 284 284 284 284 284 284 284 285 285 285 285 286 286 286 285 284 283 281 282 283 283 286 286 286 287 289 290 290 291 291 292 292 293 294 293 292 291 291 291 292 295 294 296 297 298 298 299 299 299 300 300 302 303 304 305 305 306 308 309 310 312 314 315
285 285 284 285 284 284 284 284 284 284 284 283 284 284 284 284 283 283 283 283 283 283 283 283 283 283 283 284 284 284 285 284 285 285 285 285 285 285 284 283 281 278 282 281 283 284 288 287 289 291 291 291 292 292 291 290 291 291 290 290 291 291 293 293 295 296 297 297 297 298 298 299 300 301 301 301 302 302 303 306 306 308 308 309 310
284 284 284 284 283 284 284 283 283 283 283 283 283 283 283 283 283 283 282 282 282 282 282 282 282 282 282 282 282 283 283 284 283 284 284 284 285 285 285 283 283 280 278 279 281 282 285 287 285 288 290 290 290 291 290 290 290 290 290 290 290 291 292 293 294 295 295 296 296 296 297 297 298 298 299 300 301 302 303 303 303 304 305 306 307
284 284 284 283 283 282 282 282 282 283 282 282 282 282 283 283 282 282 282 282 282 282 282 282 282 282 282 282 282 282 283 282 283 283 283 283 283 283 284 284 284 281 280 278 279 283 283 286 287 286 288 288 289 289 290 289 290 289 289 289 289 290 291 292 293 293 294 295 295 295 295 296 297 297 298 299 300 301 303 303 303 304 305 306 307
283 283 283 282 282 282 282 282 282 282 282 282 282 282 282 282 282 282 282 281 281 281 282 281 281 282 281 281 282 281 282 282 282 282 283 283 283 283 282 283 283 282 281 280 277 282 285 283 285 287 286 287 288 288 288 289 289 289 288 289 289 289 290 290 291 292 293 293 294 295 295 296 296 297 297 298 299 300 301 302 302 303 304 305 307
283 283 282 282 282 282 282 281 281 281 281 281 281 281 281 281 281 281 280 280 280 280 281 281 281 281 281 280 281 281 281 281 281 282 282 282 282 282 282 282 282 282 282 280 279 279 284 283 284 285 287 286 287 286 286 287 288 288 288 288 289 288 288 289 290 291 291 292 293 294 294 295 295 295 296 297 298 299 300 301 301 302 303 304 306
283 282 282 282 282 282 281 281 281 281 281 280 281 281 281 280 280 279 279 279 279 279 280 279 280 280 280 279 280 280 281 280 281 281 281 281 281 282 282 282 281 282 281 280 278 278 281 284 284 284 285 286 284 286 285 286 286 287 287 288 288 288 288 288 289 289 290 291 291 292 293 294 294 295 296 296 297 298 298 300 300 300 301 303 303
282 282 282 282 281 281 281 280 280 280 280 280 280 280 279 279 279 280 279 278 278 278 279 279 279 280 279 279 279 280 280 280 280 279 280 280 280 280 280 280 280 280 281 279 278 278 277 281 281 283 283 285 282 285 284 284 285 285 285 286 287 287 287 288 288 288 289 290 290 291 292 293 293 294 295 295 296 297 298 299 298 300 301 301 301
282 281 281 280 280 280 280 280 280 279 279 279 279 279 278 278 278 278 278 278 278 278 278 278 278 279 279 279 279 279 280 278 279 279 279 279 280 279 279 279 279 279 280 280 278 277 277 278 280 280 281 282 282 282 284 284 284 284 284 284 285 286 287 287 287 288 289 290 290 291 292 292 293 293 294 294 296 296 297 298 298 298 299 300 300
281 280 280 279 279 279 279 279 279 278 278 278 278 278 278 277 277 277 277 277 278 278 278 278 278 278 278 278 278 278 278 277 277 278 278 278 278 278 278 278 278 278 279 279 279 278 277 276 278 279 280 280 281 282 283 283 283 283 283 284 285 285 286 287 287 287 289 290 290 290 291 291 292 292 293 293 294 295 296 296 297 297 298 299 299
280 280 279 279 278 278 278 278 277 277 277 277 277 277 277 277 277 277 277 277 277 277 278 278 278 278 277 277 277 277 277 276 277 277 277 277 277 277 277 277 277 278 278 278 278 278 277 276 277 279 280 280 280 281 281 280 281 282 282 282 283 283 284 285 286 287 288 289 290 290 290 290 290 291 292 292 293 293 294 295 296 297 297 298 298
279 278 278 278 278 277 277 277 277 277 277 277 276 276 276 276 276 276 277 277 277 277 278 278 278 278 277 277 277 277 276 276 276 276 276 276 276 276 276 276 277 277 277 277 277 277 277 276 276 276 278 278 278 279 280 280 279 279 280 281 282 283 283 284 285 286 287 287 287 288 289 289 290 290 291 292 292 293 293 293 294 295 295 296 297
278 277 277 277 277 277 276 276 276 276 276 276 276 276 276 275 276 276 277 277 277 277 277 277 277 277 277 277 277 276 276 276 275 275 276 276 275 276 276 276 276 276 276 276 276 275 275 275 275 276 276 277 277 276 279 280 279 279 278 279 279 282 283 283 282 284 286 286 287 288 288 288 289 289 289 289 290 291 292 292 293 293 293 294 296
276 276 276 276 276 276 276 276 275 275 275 275 275 275 275 275 276 277 277 277 277 277 277 277 277 277 277 277 276 276 276 276 276 276 276 275 276 275 276 275 275 275 274 274 274 274 273 273 273 273 274 274 275 276 277 278 277 277 279 278 276 277 279 281 282 282 283 284 285 286 287 288 288 289 290 290 290 291 291 292 292 292 292 293 293
276 276 275 275 274 275 275 274 274 274 274 274 274 274 274 276 277 277 277 277 276 276 276 277 277 277 276 276 276 276 276 276 276 276 276 276 274 273 274 275 274 274 273 273 272 272 272 272 271 273 273 272 273 274 274 274 274 274 276 276 275 276 276 276 278 280 280 280 281 284 285 286 286 287 287 288 288 289 290 292 292 291 292 293 293
275 275 274 274 274 274 273 273 273 273 273 274 273 273 274 276 277 277 276 276 276 276 275 275 276 276 276 276 276 276 275 275 275 275 275 275 275 275 274 274 273 273 272 271 271 271 271 270 270 271 270 271 272 272 272 273 274 275 274 275 274 275 276 275 276 278 280 280 279 279 282 285 284 284 285 286 288 289 289 290 290 290 291 292 293
273 273 273 273 273 273 273 272 272 272 272 272 272 274 275 276 276 276 276 275 276 276 275 275 275 275 276 276 275 275 274 274 274 274 274 275 275 275 276 276 275 273 271 270 270 271 270 270 270 270 270 270 271 272 272 273 274 273 273 274 273 273 273 272 271 275 280 279 278 277 277 280 280 279 281 284 286 287 288 289 290 291 291 291 291
272 272 272 272 272 272 272 272 271 271 272 272 272 274 275 276 277 276 276 275 275 275 275 275 275 275 275 274 274 274 274 273 273 273 273 274 274 274 274 274 275 275 275 273 271 270 270 269 269 270 270 270 271 272 272 273 273 273 274 274 273 273 272 272 273 272 277 280 277 277 277 280 281 280 279 281 283 285 286 288 290 290 290 291 291
271 271 271 271 271 271 271 270 270 271 271 271 272 273 274 276 276 276 275 275 274 274 275 274 274 274 273 273 273 273 273 273 273 273 273 272 273 273 273 274 274 274 274 275 275 273 272 271 270 270 271 271 271 272 274 274 275 273 273 273 274 274 274 273 273 274 276 279 277 275 274 278 280 279 279 281 282 283 283 286 288 289 290 290 291
270 270 271 270 270 270 270 269 269 270 270 270 271 273 274 275 276 276 275 274 274 274 274 274 273 273 272 272 272 272 273 273 273 273 272 272 272 272 272 272 272 273 274 275 275 276 275 273 272 271 273 274 272 273 275 276 274 273 273 272 274 274 274 273 276 276 278 279 275 275 274 276 279 279 279 281 283 284 284 285 287 289 289 290 290
270 269 269 269 269 268 268 268 268 268 268 270 271 273 274 274 275 276 274 274 273 273 273 272 272 272 272 272 272 271 272 272 273 273 272 272 272 271 271 271 272 272 273 273 274 274 274 274 274 274 274 275 274 275 275 276 275 275 275 274 274 274 275 277 277 277 277 279 278 276 272 275 278 277 277 279 282 283 284 286 287 288 288 289 289
269 269 269 268 267 266 267 266 266 267 268 270 270 272 273 274 275 274 273 272 271 271 271 272 272 272 272 272 271 271 271 272 273 274 274 273 272 272 271 272 272 273 273 275 277 277 276 275 275 275 275 275 277 276 276 276 276 276 277 277 277 276 275 274 272 274 274 277 278 276 273 274 277 276 276 278 279 278 280 282 286 288 289 289 289
269 268 268 267 267 266 265 265 265 266 267 268 269 271 272 273 273 271 271 271 271 270 271 271 271 272 272 272 272 271 271 271 273 275 276 276 273 272 272 272 273 273 273 275 278 279 279 279 280 280 280 281 280 281 282 282 280 279 277 275 274 275 273 271 272 273 273 275 276 277 275 273 275 276 275 277 277 278 279 280 281 286 288 289 289
268 267 267 266 265 265 264 264 264 264 265 267 269 270 271 272 272 271 271 270 270 270 270 271 272 272 272 272 273 272 271 272 274 275 277 276 274 273 273 272 272 272 273 275 276 276 279 280 280 280 280 280 280 281 281 281 281 280 276 273 274 275 272 272 270 272 273 275 275 277 274 273 275 276 275 276 277 277 278 281 282 283 285 285 287
266 266 265 265 265 264 264 263 264 265 265 266 267 269 270 271 272 271 271 270 269 269 270 270 271 271 271 272 273 274 273 274 276 277 277 276 274 274 274 273 272 272 274 275 275 275 275 276 276 277 277 278 278 278 278 280 280 279 278 276 276 274 272 272 272 271 270 272 275 278 273 273 274 275 275 272 271 275 278 278 279 281 284 285 286
Wind_Speed
4 3 3 3 3 3 2 2 2 3 3 2 2 2 2 2 2 2 2 2 2 1 1 1 1 1 2 2 2 2 2 2 2 2 2 2 2 3 3 4 6 7 8 9 9 10 11 12 11 8 6 5 6 8 5 6 2 3 6 5 4 7 4 6 3 3 1 2 2 5 4 6 6 7 6 6 3 3 4 5 6 6 8 9 10
3 2 1 3 2 3 4 4 1 1 2 4 3 2 1 0 1 2 2 2 2 1 1 1 1 1 2 3 3 3 2 2 2 2 2 2 2 1 3 4 5 6 7 8 8 8 9 10 11 11 13 14 14 11 8 5 7 7 5 7 8 9 5 7 8 7 5 3 2 2 3 3 5 7 6 6 7 7 7 4 6 6 5 6 7
2 3 4 5 4 3 2 1 1 3 3 2 1 2 2 2 2 2 1 2 0 1 1 1 2 2 2 3 3 3 3 3 3 3 3 2 3 3 1 3 5 5 6 7 8 7 8 9 10 12 13 14 14 13 13 8 7 8 6 2 8 8 8 9 9 8 8 7 5 5 5 5 6 5 6 3 4 5 6 7 6 6 6 6 5
7 6 6 6 5 5 6 6 5 3 3 4 3 3 3 3 4 5 4 3 3 2 3 2 2 2 2 2 2 3 3 4 4 4 4 4 4 4 4 3 2 2 4 6 7 7 7 7 8 10 11 12 13 14 14 12 10 10 12 10 7 9 10 7 10 10 11 9 7 6 7 5 3 4 4 4 5 2 4 5 7 7 7 6 7
8 8 7 7 6 6 5 5 4 3 4 5 4 3 3 4 4 3 3 2 1 2 2 2 2 2 1 2 2 2 3 4 3 3 4 4 4 4 4 4 4 1 2 3 5 6 7 7 8 8 10 11 12 12 13 12 10 10 11 13 13 14 12 12 7 11 10 10 9 8 8 7 5 5 5 6 7 7 5 4 5 7 8 9 8
7 7 6 7 7 6 5 4 3 4 4 4 4 3 4 3 2 1 2 2 3 3 3 3 2 2 2 2 2 2 3 3 3 3 3 3 3 3 4 4 4 4 4 1 1 5 7 8 9 9 9 9 10 11 12 12 12 11 12 12 14 14 14 13 11 13 13 12 10 8 7 7 6 6 6 7 6 4 5 4 5 8 9 10 9
7 7 7 6 7 7 7 5 4 5 6 5 4 3 3 3 2 2 2 3 2 2 2 2 2 2 2 1 2 2 3 3 3 3 3 3 3 3 4 4 5 5 5 6 1 3 6 8 9 10 9 10 11 11 12 12 12 13 12 13 14 14 15 14 15 10 13 10 8 8 8 8 8 8 7 6 4 3 5 6 5 7 9 11 11
9 8 8 9 8 8 7 6 6 6 5 4 4 5 3 3 3 3 3 3 3 2 1 2 2 2 2 2 2 2 3 3 3 3 2 3 3 3 3 4 5 5 6 5 6 4 4 8 10 10 10 10 11 12 12 12 12 12 12 14 15 15 16 16 15 15 8 11 9 10 10 9 9 10 5 6 7 7 8 8 7 7 8 10 11
10 10 10 10 9 8 7 8 7 6 5 5 5 5 5 4 4 5 4 3 4 4 4 4 3 3 2 2 1 1 2 3 3 3 3 3 3 3 2 2 3 3 3 5 5 6 3 4 8 9 9 9 10 12 12 13 13 13 13 12 13 14 15 16 16 15 11 5 9 6 5 6 3 4 7 7 9 10 10 6 5 7 10 10 10
9 8 9 9 9 8 7 7 6 5 5 6 6 4 4 4 5 5 4 4 3 3 3 2 2 3 2 2 2 2 2 2 2 2 3 4 4 4 4 3 3 3 3 4 4 4 5 4 4 7 7 5 9 12 13 13 13 14 14 14 14 14 14 15 15 15 14 7 4 6 7 8 8 8 8 8 9 10 9 8 8 8 9 12 13
9 8 8 8 8 8 7 7 6 6 6 7 7 7 7 6 6 5 5 5 4 4 5 5 4 3 3 3 3 3 2 2 2 3 3 3 4 3 2 4 4 4 4 4 4 4 5 5 6 6 6 3 8 12 13 14 14 14 15 15 15 15 15 15 15 16 13 15 12 9 10 9 11 11 11 11 11 11 11 10 10 11 12 12 13
9 9 9 8 8 8 8 7 7 7 7 8 7 6 6 6 6 5 5 5 6 5 6 5 4 3 3 3 2 2 2 3 3 3 4 4 4 3 4 4 5 5 5 4 4 5 5 6 5 6 6 7 6 7 10 12 13 14 15 15 15 16 16 16 16 16 16 13 14 14 13 11 12 13 13 12 12 12 11 11 13 14 14 13 11
10 9 9 8 8 7 7 8 8 8 8 8 8 8 6 4 5 5 5 5 6 6 7 5 4 5 5 3 3 0 4 3 4 6 6 5 4 4 5 6 6 6 5 4 4 4 5 6 6 6 6 6 7 8 7 9 9 11 13 16 17 17 17 16 17 17 17 15 13 14 16 13 13 14 14 14 13 11 11 12 13 13 13 13 13
9 9 9 8 8 7 8 8 8 8 9 9 10 9 10 8 5 5 6 7 7 9 9 8 5 7 7 7 1 1 4 3 5 9 6 5 5 5 5 6 7 6 6 5 6 6 6 6 6 6 6 6 6 7 7 8 8 11 15 16 17 17 18 18 17 17 17 17 16 14 13 14 15 14 14 13 13 12 12 14 14 11 11 12 12
10 9 8 8 8 8 8 8 9 8 8 9 10 10 9 9 9 6 4 6 7 8 9 9 6 7 4 4 3 5 4 3 7 10 4 5 5 6 5 7 8 7 7 7 7 7 6 6 7 6 6 6 6 6 6 8 7 9 13 14 15 16 17 18 19 18 17 17 18 16 16 16 15 17 16 15 14 15 15 15 15 14 11 12 12
11 10 9 9 9 9 8 8 8 8 8 9 9 9 9 8 8 8 6 6 6 7 9 9 7 8 5 4 4 3 3 3 10 4 2 7 6 5 7 7 8 9 7 7 8 7 7 7 7 7 7 7 7 7 7 6 9 8 8 9 11 14 16 17 18 19 19 19 18 18 18 17 17 17 18 20 18 17 17 15 15 14 13 13 14
10 11 10 10 10 9 9 8 8 8 8 9 9 9 8 8 9 8 9 6 6 5 7 8 10 9 6 5 3 4 5 8 11 2 3 4 4 5 6 6 7 8 7 7 7 7 8 9 8 8 8 8 8 8 7 8 7 8 8 8 7 12 15 16 18 18 19 20 20 19 19 19 18 19 19 18 20 20 18 19 17 16 14 13 15
10 10 10 9 10 9 9 8 9 8 8 8 8 8 10 10 9 8 9 9 7 6 6 6 8 9 9 7 4 3 7 8 7 5 9 1 3 4 5 6 6 7 6 6 8 8 8 9 9 9 9 8 8 8 8 7 8 7 7 9 14 14 14 16 17 18 19 19 20 20 20 20 20 20 19 20 20 20 20 22 20 18 16 16 15
10 10 10 10 9 9 9 9 8 8 8 8 9 9 8 8 8 9 8 7 7 8 8 6 6 8 7 6 5 3 4 5 6 7 8 3 3 6 5 6 8 7 5 6 8 7 8 9 9 9 9 8 8 8 7 8 9 8 8 9 12 13 14 15 16 17 18 19 19 20 20 20 21 21 21 21 21 22 21 21 24 21 18 18 17
9 10 10 9 9 9 9 8 8 8 7 8 8 7 7 7 8 8 7 7 8 7 7 7 7 6 7 7 6 4 4 4 4 5 6 10 10 4 2 9 8 5 4 9 8 7 9 9 8 9 8 8 7 7 7 8 8 8 8 12 14 15 16 16 16 16 17 19 19 20 20 21 21 21 22 22 22 22 22 22 21 22 20 18 19
9 9 9 9 9 8 9 9 8 8 7 7 7 8 9 8 8 8 8 7 7 6 5 6 6 6 6 6 6 6 4 4 4 5 6 8 9 10 12 6 5 4 7 8 6 8 9 8 7 8 7 7 7 7 7 7 7 7 9 12 14 15 16 16 16 16 17 17 18 19 20 20 21 21 22 23 22 22 21 22 21 20 21 21 22
8 9 9 9 9 9 8 9 9 8 7 7 7 8 8 8 8 8 7 7 6 6 6 5 4 5 5 4 5 5 4 4 4 6 5 4 8 11 10 14 13 6 6 7 8 9 8 7 7 7 6 7 7 7 7 7 7 6 8 13 13 13 15 16 17 17 17 17 18 18 19 19 20 21 21 22 22 22 22 21 22 21 21 23 23
6 7 8 8 8 8 8 7 7 7 7 7 7 6 6 6 6 7 8 8 6 6 6 6 4 4 5 4 4 4 4 5 5 5 5 6 8 8 9 9 10 14 5 5 7 8 6 6 7 6 6 7 7 7 7 7 8 6 8 9 12 13 15 16 16 17 18 18 18 18 19 19 19 20 20 21 21 21 22 21 22 22 22 23 26
6 6 7 7 6 6 6 6 7 6 6 5 5 5 5 5 6 6 5 6 6 5 5 6 6 4 4 4 3 3 3 3 4 5 5 6 7 9 9 9 9 8 9 10 8 6 4 6 6 4 6 7 7 8 8 7 7 7 7 10 11 13 16 17 18 18 18 19 19 19 18 19 18 19 19 20 21 22 22 22 22 22 23 23 23
5 5 6 6 5 6 6 5 5 5 5 5 5 5 4 5 5 5 5 6 5 5 5 5 5 5 4 3 3 3 3 3 4 4 5 5 6 8 8 7 10 10 8 8 7 6 7 6 4 5 6 7 7 7 7 7 7 7 8 10 14 16 16 16 18 18 18 19 20 20 20 19 19 19 19 19 19 20 22 22 22 22 22 24 24
5 5 4 4 5 5 5 5 5 4 4 4 4 5 4 4 5 5 5 4 4 4 4 4 4 4 4 3 4 3 3 3 4 4 5 5 6 7 9 8 9 11 9 8 8 9 4 3 6 6 6 7 7 7 7 7 8 8 11 12 16 17 17 17 18 18 18 19 19 20 21 21 21 20 20 20 20 20 20 21 22 22 23 23 24
4 4 4 4 4 4 5 5 5 5 5 5 4 5 5 4 4 5 4 4 4 4 3 4 3 5 4 4 3 3 3 4 4 4 4 4 5 6 7 10 10 8 10 8 9 8 10 9 7 8 7 7 6 7 8 7 9 12 12 12 12 14 13 17 18 19 19 19 19 20 20 21 21 21 21 21 20 20 21 21 21 22 22 23 23
4 4 3 4 4 4 5 5 4 4 5 5 5 4 4 4 3 3 3 3 3 4 3 3 3 4 4 4 3 3 3 3 4 4 4 4 5 5 5 6 9 12 9 10 8 9 8 9 10 7 5 6 7 8 10 12 11 12 12 10 10 12 14 16 18 18 19 20 20 20 20 20 21 22 22 22 22 21 21 22 21 21 22 22 23
3 3 4 4 3 3 3 4 4 4 4 4 4 4 3 3 3 3 3 3 2 2 2 2 3 2 3 3 3 3 3 3 3 4 4 4 4 5 5 6 7 9 10 11 10 11 9 8 10 8 8 8 9 9 11 10 11 11 11 11 11 11 13 17 18 19 20 21 21 21 21 21 21 22 22 22 23 22 22 21 21 21 21 21 22
3 2 2 3 3 3 3 3 3 3 4 4 3 3 3 3 3 3 3 3 3 2 2 3 4 3 3 3 4 3 4 4 4 5 4 5 5 5 5 6 6 8 9 11 13 8 10 9 9 12 10 11 12 11 10 10 11 12 12 12 12 12 15 17 20 21 21 22 21 20 21 22 22 22 22 22 23 23 23 23 22 22 22 22 22
2 2 2 2 2 3 3 3 3 3 4 4 4 4 4 3 3 3 3 4 4 4 3 3 4 4 4 4 4 4 4 4 5 4 4 4 5 5 6 6 6 8 9 10 13 10 5 10 11 11 15 15 12 13 11 11 11 12 13 13 13 14 14 16 18 20 20 20 20 21 21 22 23 24 24 23 23 24 24 24 23 23 23 23 22
3 2 3 3 3 4 3 4 4 4 4 4 4 4 4 4 4 4 4 4 4 4 3 3 3 4 5 5 5 4 5 5 5 4 5 5 5 5 6 6 7 7 8 9 12 16 10 10 13 12 12 14 14 14 16 12 11 13 12 12 13 15 13 12 14 16 19 20 21 21 21 22 23 24 25 24 24 25 25 24 25 25 24 24 24
2 2 3 3 4 4 4 4 5 4 5 5 4 4 4 4 3 3 4 4 4 4 4 5 4 4 5 5 5 5 5 5 5 5 5 5 6 6 6 6 7 7 7 9 12 15 13 8 10 11 10 11 14 11 14 15 15 12 12 13 13 12 12 12 12 15 16 19 20 21 21 22 23 24 24 24 24 24 24 25 24 24 24 24 24
3 3 3 3 3 4 4 4 3 3 3 4 4 3 4 4 4 3 4 5 5 5 5 5 5 4 5 6 6 6 5 5 6 6 6 6 6 6 6 6 7 8 7 9 11 12 16 12 11 10 11 8 14 11 11 13 16 15 17 14 12 13 12 12 12 12 16 17 19 21 22 23 23 24 24 23 24 24 24 24 23 23 24 24 23
2 2 2 2 2 2 2 2 2 2 3 3 3 3 4 4 5 4 4 5 5 6 6 6 6 6 6 6 6 6 4 6 7 6 6 7 6 7 8 7 9 9 9 9 10 12 15 15 13 13 11 9 10 13 13 11 14 15 16 16 14 12 11 13 13 12 15 18 20 20 21 22 23 24 24 24 24 24 24 24 24 23 24 24 24
2 2 2 1 1 1 1 1 1 2 2 3 3 3 4 4 5 5 5 5 5 6 6 7 7 6 7 7 6 6 6 7 7 6 6 6 7 7 8 8 8 10 9 9 10 11 12 15 14 12 12 12 10 12 11 11 13 15 14 14 15 15 14 13 13 13 13 18 20 21 22 23 23 24 24 24 24 24 24 25 24 24 23 23 24
2 1 1 1 1 1 0 0 1 1 2 2 3 3 3 4 5 5 5 5 6 6 7 7 7 7 7 7 7 7 7 7 7 6 6 8 8 8 8 8 8 9 8 9 10 10 12 14 16 13 12 13 11 11 11 12 12 14 14 14 14 16 17 15 12 12 17 20 21 23 23 23 23 23 24 25 25 24 23 24 24 24 23 23 23
2 1 1 0 0 1 1 2 2 2 2 3 3 4 4 4 5 5 5 6 6 7 7 7 7 7 7 7 7 7 7 7 7 7 8 9 8 9 9 9 9 9 10 10 10 11 12 14 14 16 13 13 13 11 12 12 13 14 14 14 14 14 14 15 13 11 10 10 11 11 12 15 18 21 22 22 23 23 24 23 23 23 22 21 21
1 1 1 1 2 2 2 2 2 2 3 3 3 4 4 4 5 5 6 6 7 6 7 7 7 7 7 7 7 7 7 7 8 8 8 9 8 10 9 9 9 9 10 10 10 11 12 13 13 13 14 13 12 14 12 12 13 12 14 14 13 12 12 13 16 14 11 13 14 17 16 17 20 19 22 25 25 26 26 25 24 23 22 21 21
2 1 2 2 2 2 3 2 2 2 3 3 4 4 4 4 5 6 6 6 7 7 7 7 7 7 7 8 8 8 8 7 7 8 8 8 8 10 9 9 9 10 10 10 10 10 11 12 12 12 11 13 13 12 12 12 12 11 10 12 15 15 15 14 15 16 15 14 14 13 12 15 16 17 20 22 25 27 27 26 25 23 21 21 22
1 2 1 2 3 3 3 3 2 2 3 3 3 3 4 5 5 6 6 7 7 8 8 7 7 7 7 7 8 7 8 9 12 13 13 12 11 10 9 9 10 10 10 10 10 10 10 10 12 11 12 12 11 12 12 11 12 13 13 13 15 15 14 15 16 15 13 15 16 16 14 12 13 13 12 12 12 15 16 17 16 18 17 19 20
2 2 2 3 4 4 4 4 3 3 3 3 4 7 8 6 7 7 7 7 8 8 8 8 8 7 8 7 7 10 11 13 14 15 15 15 16 13 12 11 10 10 11 11 10 10 10 11 11 11 12 12 12 12 13 13 13 13 14 13 14 14 14 14 15 12 11 12 13 16 15 12 13 14 13 14 13 13 12 12 11 12 12 14 16
3 3 2 4 4 4 4 4 4 3 3 4 7 9 9 10 8 7 7 8 8 8 8 8 8 8 7 8 8 8 9 11 11 13 14 15 15 17 18 18 15 13 12 12 11 10 10 11 12 12 12 14 14 12 13 13 12 13 12 12 13 14 13 14 16 13 7 11 13 14 16 14 13 16 15 15 14 14 13 13 16 17 17 17 19
3 3 3 4 4 4 4 4 4 4 4 6 9 9 10 10 10 8 7 7 7 7 8 8 8 8 8 8 7 7 7 8 9 10 12 14 15 16 17 16 16 16 16 13 12 12 11 12 14 13 13 13 14 12 12 12 13 13 13 13 14 14 15 15 15 15 12 13 14 16 19 16 13 15 16 14 15 14 15 19 23 22 22 21 20
3 4 4 4 4 4 4 5 4 4 5 6 8 9 10 11 11 10 7 7 8 8 8 9 9 8 8 8 8 7 7 11 10 10 10 11 13 15 15 16 16 16 15 16 17 14 13 14 15 16 14 14 15 13 12 14 14 16 15 15 15 15 15 16 16 15 13 12 16 18 20 18 12 14 17 14 13 13 15 21 26 26 24 24 25
4 4 4 4 4 4 5 5 4 4 6 6 9 10 10 11 11 10 8 8 8 9 9 9 8 8 8 8 9 9 8 9 9 10 10 10 11 11 11 11 11 13 16 19 21 23 21 17 18 18 17 15 16 15 16 16 17 16 15 16 16 16 17 16 16 17 18 15 15 16 20 18 9 12 16 15 12 14 15 18 26 26 27 26 24
4 4 4 5 4 4 5 4 4 5 5 9 10 11 11 11 11 10 8 8 7 8 8 9 9 9 9 9 10 10 10 10 9 10 12 13 13 12 12 13 14 15 15 15 15 15 15 15 17 18 18 17 17 18 18 18 19 18 17 18 18 17 16 18 18 16 15 13 14 14 18 18 9 13 16 15 14 13 14 18 26 26 27 28 28
3 3 3 3 4 5 5 4 5 5 6 9 10 11 11 11 11 7 6 7 7 8 9 9 9 9 9 10 10 10 11 11 13 18 16 14 14 14 14 14 14 14 14 15 21 21 20 17 16 18 17 19 21 19 17 15 14 15 16 16 14 14 16 16 16 14 13 11 12 14 16 17 11 14 16 14 13 14 15 15 20 24 24 26 28
4 4 4 4 4 5 5 5 5 5 6 8 10 11 11 11 8 5 6 6 7 8 8 9 9 9 10 10 11 11 13 14 16 19 20 20 15 14 14 14 12 12 13 13 20 24 25 28 30 32 32 31 30 31 30 32 24 20 17 16 15 13 14 17 16 15 14 12 12 14 15 19 12 12 16 13 13 14 14 14 15 20 24 24 26
4 4 4 4 4 5 5 5 5 5 6 8 10 12 12 11 9 7 6 6 7 7 8 9 8 9 10 15 14 13 14 15 19 21 22 18 14 14 15 16 18 16 16 15 13 16 23 28 28 28 29 29 29 29 29 28 28 22 15 17 16 14 16 16 18 15 15 14 13 12 16 16 13 11 14 14 13 11 14 14 14 15 23 26 28
3 3 4 4 4 4 5 5 7 7 7 7 11 12 12 10 8 6 6 6 7 7 7 8 8 9 10 11 17 17 16 18 23 21 22 19 15 14 16 16 16 17 13 15 15 15 14 14 16 17 18 21 20 18 18 24 25 24 17 16 14 14 17 17 16 16 16 13 10 11 14 13 11 12 12 15 14 10 9 11 11 11 11 11 12
Wind_Direction
237 252 269 239 218 221 229 252 243 208 181 143 146 225 240 207 156 140 142 157 166 191 147 123 120 58 353 8 342 356 8 355 360 345 335 333 338 84 7 27 16 14 11 4 357 352 349 346 341 325 312 311 303 310 316 310 231 217 289 288 244 268 196 157 171 165 140 259 353 3 4 1 359 345 342 347 325 323 342 28 31 32 23 20 21
223 182 121 41 51 52 27 23 320 284 218 193 183 227 292 355 87 140 118 174 207 142 205 128 91 58 11 353 349 347 352 346 342 331 337 325 338 70 104 12 13 11 13 7 1 358 353 347 341 338 341 342 339 324 299 283 304 296 283 286 305 293 200 186 191 192 168 197 239 244 281 278 302 315 302 306 329 4 3 356 354 357 2 11 12
87 113 92 78 69 85 94 166 355 358 341 301 36 21 28 13 354 9 138 226 244 94 259 77 73 68 48 360 359 338 345 342 335 335 327 338 341 346 62 116 11 2 1 4 1 359 356 346 343 342 342 347 347 342 333 306 300 296 291 216 285 285 296 203 213 209 188 198 210 233 236 259 273 277 295 334 21 343 15 358 348 336 342 348 352
62 68 74 70 58 44 29 24 34 17 37 37 39 24 31 43 33 9 358 346 30 11 359 358 47 47 28 23 353 343 343 339 333 338 336 339 336 339 338 346 137 18 358 359 358 358 351 350 341 342 341 340 342 349 345 328 316 316 315 299 261 261 302 265 218 194 194 196 208 212 235 240 240 274 265 268 276 4 330 349 338 320 312 314 327
75 70 71 75 74 68 65 50 38 29 46 56 67 66 59 51 47 37 22 354 6 33 359 328 27 40 20 29 339 342 347 326 335 334 344 334 336 336 333 332 332 178 158 8 354 353 352 348 343 342 336 337 343 342 339 341 325 307 303 306 313 322 317 332 238 203 206 211 213 216 237 256 253 215 246 261 271 270 278 294 335 323 311 304 298
65 75 83 86 79 71 66 68 70 74 76 75 68 63 69 62 50 238 71 40 31 22 348 333 24 21 18 13 335 353 335 319 330 331 321 326 330 331 330 333 331 334 345 199 8 352 355 349 348 343 338 339 338 332 328 329 331 327 321 316 314 317 320 317 315 259 223 216 224 243 262 267 251 241 228 242 249 280 318 330 319 315 301 290 300
54 67 65 66 68 57 46 42 51 61 61 58 66 57 69 68 30 356 38 45 52 55 2 347 346 350 356 345 349 342 316 321 319 313 317 335 326 342 339 335 340 336 340 334 133 92 2 350 345 342 341 342 333 326 324 322 325 327 330 329 326 322 323 324 326 319 227 227 237 247 251 265 266 258 247 236 243 251 261 249 263 290 296 288 288
58 64 69 61 62 61 51 38 42 62 64 62 70 73 67 70 52 10 3 50 19 28 317 351 334 342 355 349 352 334 329 322 325 315 345 330 351 353 344 349 345 349 333 329 337 1 27 351 341 337 338 334 331 325 321 319 318 321 321 326 326 326 327 328 328 326 302 263 248 240 259 257 268 264 194 211 227 235 244 272 285 284 284 285 285
53 59 70 67 65 65 57 59 60 62 53 49 50 56 72 73 57 47 47 56 30 10 352 354 347 326 340 346 347 330 331 344 335 351 344 353 353 352 355 1 358 337 343 344 340 333 34 360 330 324 321 323 325 322 319 319 317 314 315 313 315 317 316 322 320 328 336 335 246 275 261 245 215 242 211 223 236 255 272 277 256 264 284 289 289
52 63 71 72 70 64 57 49 53 55 60 59 55 39 45 60 65 44 41 51 43 12 339 324 316 319 336 345 349 333 332 339 7 4 15 9 3 357 360 360 11 6 2 355 344 348 335 326 282 273 272 298 319 318 319 319 318 317 314 312 308 306 309 310 315 320 329 294 243 248 262 241 194 207 222 225 234 247 256 242 246 270 281 286 284
40 49 63 67 68 65 62 53 56 53 53 51 42 37 36 37 63 73 60 49 34 11 348 330 324 327 336 339 332 339 333 15 24 48 38 21 14 13 20 18 16 24 16 3 8 351 344 337 342 340 336 325 314 321 320 319 319 317 316 313 312 309 306 306 307 310 318 327 294 243 243 229 198 203 216 226 234 241 241 240 245 261 266 275 280
35 44 54 57 61 58 58 51 53 56 53 50 47 46 39 45 44 59 69 63 42 15 359 338 317 293 322 323 336 338 27 46 71 57 15 14 19 28 35 35 35 29 24 12 16 6 356 351 345 342 338 332 316 303 314 314 312 311 309 313 312 313 311 309 307 303 306 312 318 296 264 216 205 210 218 223 232 240 243 249 269 286 283 272 273
35 41 51 58 57 54 53 51 54 55 57 54 49 47 42 44 64 56 47 52 42 18 4 313 331 336 336 318 315 285 81 84 81 22 9 24 34 31 35 39 30 22 15 8 6 11 7 360 356 350 344 341 335 333 308 300 288 304 320 319 317 312 311 309 308 307 304 303 301 306 294 224 217 220 224 226 228 235 242 251 260 285 288 279 268
36 41 48 53 58 58 52 49 51 56 55 51 43 41 36 32 18 71 52 48 47 20 11 350 16 352 333 331 268 351 91 94 38 4 21 37 20 38 38 37 27 16 6 1 1 356 1 359 355 346 343 339 339 334 334 332 327 332 321 317 314 312 311 310 307 306 304 302 298 294 293 283 265 247 236 236 236 237 246 260 270 259 280 281 279
39 38 40 43 52 57 54 52 49 52 58 53 46 43 35 33 31 27 58 61 63 37 28 22 4 336 294 298 358 347 139 112 5 354 52 21 30 50 34 17 21 12 354 351 355 354 357 352 344 340 336 335 329 328 324 322 326 322 311 311 312 312 313 311 310 307 304 301 299 293 285 280 274 266 256 251 250 249 254 259 270 278 266 264 263
39 40 44 43 46 53 56 55 54 53 59 60 51 45 37 33 33 34 30 63 51 52 37 32 25 356 11 340 315 319 335 29 347 333 76 13 42 37 18 8 11 359 352 357 356 353 348 347 341 336 331 327 325 321 320 318 313 295 296 297 300 311 313 312 311 310 307 303 298 295 291 284 278 275 269 258 248 248 258 266 267 252 256 259 261
44 42 44 45 43 46 51 53 55 52 58 61 56 46 41 37 33 42 35 41 56 58 51 41 39 27 14 359 355 353 19 333 329 81 23 3 48 7 14 14 4 356 351 354 354 351 349 343 341 335 331 328 327 324 320 319 319 325 319 309 317 315 313 312 311 311 310 308 304 298 293 289 284 280 276 263 255 255 255 258 255 257 258 243 250
47 46 45 46 47 44 46 51 53 52 54 60 58 52 41 37 29 32 38 33 49 54 60 59 49 42 42 51 27 2 337 328 344 331 336 58 355 349 5 3 360 349 345 351 351 347 350 343 336 334 331 329 328 327 326 324 327 323 326 323 316 313 314 313 313 312 312 311 309 306 300 292 288 283 277 278 274 260 258 260 260 260 261 260 257
47 46 46 44 46 42 43 46 49 52 51 57 56 52 44 35 28 35 31 26 32 53 40 32 57 46 40 50 50 42 2 356 3 330 336 337 330 338 346 350 349 335 336 355 344 341 346 338 332 331 331 331 332 329 330 327 323 318 299 295 314 321 318 316 314 312 311 310 309 308 305 302 295 288 282 277 274 276 266 260 267 269 252 250 242
49 45 44 44 44 45 41 44 46 44 46 51 52 48 52 46 39 37 38 36 32 42 40 27 30 27 20 29 30 37 40 45 22 355 325 321 323 333 345 339 340 336 348 345 343 345 336 331 326 327 328 329 327 330 329 329 327 326 332 334 332 329 326 321 316 313 311 310 309 308 306 303 302 299 293 286 281 277 275 270 264 267 261 239 238
49 48 43 43 43 44 42 42 41 38 39 46 47 48 48 45 38 37 38 39 39 30 40 38 29 22 7 17 13 11 4 17 9 360 343 325 317 332 324 328 323 332 333 327 337 336 325 315 314 315 318 323 326 329 327 329 328 334 333 337 332 328 326 323 319 315 311 308 307 305 305 305 303 300 298 296 290 284 279 277 270 259 251 240 244
52 47 48 44 43 44 44 41 39 36 34 35 36 39 40 42 42 40 33 41 37 36 36 28 37 30 21 6 13 3 1 2 3 352 332 311 308 320 321 326 326 323 318 317 325 324 320 312 314 315 314 324 327 325 326 323 332 327 329 328 327 328 324 323 320 316 313 310 308 306 304 302 301 300 298 297 294 290 284 277 273 270 254 249 249
59 52 48 45 46 44 46 45 43 41 37 35 33 33 33 38 39 42 41 35 29 26 34 28 12 33 21 18 15 9 357 346 339 342 327 316 315 306 311 309 307 311 313 315 310 311 303 312 306 308 316 318 320 321 321 319 315 322 323 324 331 329 326 322 318 315 313 310 309 308 307 307 306 303 299 297 295 293 290 285 277 269 262 251 249
60 56 47 41 47 48 47 50 47 43 44 41 38 34 37 41 42 40 37 36 29 29 29 27 18 17 23 11 8 356 349 347 337 325 321 318 310 303 307 312 303 284 305 308 301 270 275 289 281 296 315 311 309 312 304 307 315 338 349 334 324 323 318 313 314 313 310 307 305 303 301 300 302 302 301 298 295 292 290 288 284 279 272 264 253
57 60 49 43 48 51 48 47 48 45 44 45 42 37 41 50 48 49 45 37 32 28 34 23 19 12 2 358 360 357 353 352 330 321 318 310 306 305 308 314 304 305 306 313 315 308 285 268 289 307 301 297 299 299 303 305 311 359 354 328 321 311 303 304 307 307 306 303 302 301 299 296 295 296 296 295 295 293 290 287 284 281 277 272 267
71 65 52 53 60 61 62 62 58 53 48 47 45 40 39 53 51 47 43 38 31 31 39 20 20 11 358 350 359 348 352 349 335 329 330 327 320 322 315 313 306 306 310 313 316 322 320 300 312 305 309 306 304 304 305 308 310 338 329 318 309 304 303 302 303 303 302 302 302 301 299 297 294 293 292 291 292 292 291 289 286 283 280 278 274
80 74 64 64 64 63 57 57 50 45 39 37 33 35 31 39 44 40 37 26 18 20 25 17 11 5 4 359 335 343 350 345 340 332 334 324 320 318 321 317 313 301 305 307 308 300 306 314 319 310 296 300 305 309 306 307 304 300 313 310 302 300 298 301 302 304 305 306 303 300 298 296 294 292 290 289 289 290 290 288 286 284 282 279 279
87 84 70 65 62 65 64 60 55 49 45 40 35 36 29 41 48 44 46 26 16 24 10 7 9 356 358 348 334 337 342 340 331 326 325 323 311 309 309 303 309 312 313 306 301 294 307 307 312 299 298 301 306 305 304 300 296 304 303 298 299 299 297 298 301 303 305 305 303 301 299 297 295 293 291 288 286 285 285 285 285 283 283 282 282
88 76 66 64 62 63 73 66 56 52 50 47 38 31 19 38 35 34 30 15 360 14 359 355 342 334 342 339 331 323 326 330 316 317 320 309 306 302 296 296 301 296 306 304 301 305 305 305 302 294 296 298 305 304 300 295 297 303 300 294 289 289 292 296 297 299 300 298 298 299 298 296 293 290 287 286 284 282 281 281 280 278 276 276 276
88 92 99 95 84 68 65 64 56 48 43 36 29 21 10 26 23 30 25 357 349 354 354 350 343 338 327 326 320 318 323 319 313 309 304 303 297 296 292 289 282 280 290 295 295 289 293 298 293 300 303 304 302 297 292 291 289 293 296 293 289 285 289 293 293 293 290 290 290 292 293 292 290 288 286 283 283 282 281 280 280 280 278 276 275
123 124 114 85 73 69 64 52 48 41 37 33 19 17 11 16 10 13 18 359 349 344 346 343 333 330 327 322 320 314 322 315 308 301 296 291 293 292 289 282 275 271 277 283 289 280 274 291 288 289 300 302 301 298 295 290 291 293 292 288 285 284 284 282 277 278 283 286 286 286 287 288 289 288 286 284 282 281 280 280 279 279 279 276 273
115 102 82 73 62 55 51 46 37 36 27 25 17 11 4 14 1 1 357 348 341 332 333 331 319 316 315 314 312 312 316 312 305 302 298 292 287 286 283 279 276 270 270 274 271 283 286 279 281 281 277 290 298 301 301 300 292 287 292 289 287 288 283 285 276 275 279 282 283 284 284 286 286 286 285 283 281 280 279 278 278 279 279 278 275
90 82 71 61 54 49 44 39 31 22 19 10 10 359 359 357 349 345 336 335 330 324 322 315 310 307 305 305 303 303 305 304 304 305 299 295 291 285 281 281 275 272 273 274 279 286 288 278 277 285 286 287 286 286 295 303 306 306 300 295 293 288 284 281 281 273 269 274 278 281 283 284 284 283 282 283 282 280 278 277 275 276 276 276 275
72 64 64 59 52 45 45 36 29 21 9 4 358 351 347 340 336 338 327 331 323 321 319 313 315 311 306 302 303 305 307 301 302 299 299 299 297 290 287 285 281 281 274 278 281 283 291 298 291 290 293 284 282 289 294 302 304 310 308 302 293 289 286 282 280 279 275 273 273 276 278 282 283 282 281 281 281 280 279 277 275 273 273 274 273
88 71 64 65 59 59 55 47 29 18 359 352 350 342 333 329 322 321 320 318 317 314 313 309 311 309 305 304 304 308 308 305 303 300 298 295 293 292 291 290 288 287 285 279 282 286 290 293 297 297 297 298 293 300 305 301 299 300 299 303 305 301 291 286 282 280 279 276 273 274 273 277 281 281 281 280 278 278 279 278 276 273 271 272 273
114 96 76 65 73 56 62 57 27 358 343 332 325 318 313 309 306 304 305 302 298 296 294 298 302 303 301 302 300 309 307 300 300 301 296 294 297 295 292 290 288 287 288 285 280 281 290 293 296 297 302 304 304 302 304 302 298 297 299 300 302 301 298 294 290 288 282 279 277 275 275 275 275 278 280 280 278 277 277 277 277 274 271 269 268
127 131 115 70 40 51 356 293 298 281 288 294 289 285 283 282 284 285 286 288 286 284 283 284 288 288 289 288 296 300 301 297 297 296 299 299 294 293 289 292 289 291 290 286 285 283 285 286 292 295 301 299 301 302 306 307 304 299 302 302 304 302 302 298 293 287 285 281 275 276 274 270 270 271 275 277 278 277 275 275 275 274 272 269 268
135 126 100 39 271 272 244 247 252 263 266 274 276 277 281 282 282 282 281 280 279 279 278 277 277 281 282 285 287 288 288 290 290 292 292 291 292 287 287 287 290 290 290 289 286 286 284 283 288 296 299 302 306 303 307 309 306 304 302 302 299 296 299 304 304 303 303 300 299 291 285 281 275 273 273 273 274 276 276 274 272 272 271 269 267
147 174 183 224 250 246 257 241 258 261 274 275 276 280 282 282 281 281 281 277 278 277 275 274 275 275 276 277 279 280 280 282 286 287 290 290 287 287 288 290 291 291 290 289 289 288 286 287 287 287 294 298 300 303 308 304 299 295 300 305 303 305 307 311 307 307 303 299 294 290 285 280 278 276 275 274 273 272 274 274 271 268 267 267 266
157 193 222 234 249 246 254 254 259 268 274 276 277 279 281 281 281 278 279 281 282 281 279 278 275 271 270 272 272 273 273 274 282 288 290 292 294 292 292 293 293 293 293 294 294 292 291 292 290 295 297 299 303 299 303 307 303 299 304 311 307 307 306 304 300 304 308 309 308 305 297 291 286 281 279 272 263 264 266 268 267 262 259 261 264
159 196 225 242 251 249 248 252 252 262 268 272 272 284 290 288 287 289 285 282 283 283 282 281 279 275 271 270 270 269 270 275 276 279 281 282 290 291 290 291 293 292 290 291 292 292 291 290 291 293 295 296 298 304 309 310 307 305 310 306 295 295 298 297 294 292 299 302 302 304 305 304 301 296 291 286 284 279 273 269 268 264 258 258 259
178 207 222 250 248 254 253 248 242 245 255 257 263 270 275 284 292 289 287 284 284 281 284 285 280 275 273 272 273 270 270 272 274 276 276 277 280 278 283 286 287 289 289 290 289 290 291 291 289 295 294 293 297 302 302 301 301 300 300 299 296 301 303 297 292 297 308 301 298 294 294 300 304 302 299 294 291 285 280 277 274 275 270 264 260
189 205 228 234 239 245 244 246 244 242 247 252 262 274 281 283 285 285 283 283 280 280 277 280 283 284 279 279 280 279 274 270 270 270 274 275 280 283 281 280 280 282 288 288 286 288 289 288 290 289 288 290 293 295 294 298 295 294 294 296 295 298 300 302 301 305 317 325 319 307 296 292 289 286 285 285 289 287 284 277 276 276 267 261 264
196 199 224 234 238 244 244 245 243 244 255 258 269 279 284 283 281 284 283 280 280 277 279 278 281 283 286 287 285 283 277 275 280 283 279 279 281 281 283 283 281 279 277 278 284 287 285 285 283 281 285 285 289 289 291 292 293 293 292 290 288 290 293 293 292 295 309 318 310 304 295 294 296 288 282 277 278 281 283 284 283 278 277 273 269
180 207 222 224 231 238 246 247 247 250 256 263 274 281 283 283 283 285 281 277 278 276 277 278 279 281 286 287 287 280 280 278 274 275 279 284 284 281 283 283 280 275 274 276 273 271 276 276 277 278 275 282 283 283 282 285 288 288 290 288 287 285 285 289 291 292 295 310 305 296 291 288 292 291 286 284 282 279 277 276 276 276 271 269 268
193 212 219 221 233 235 241 249 251 250 261 265 276 281 284 285 286 286 279 279 276 274 274 277 279 280 282 285 287 285 283 283 281 282 284 286 291 293 289 285 279 273 269 269 273 275 273 270 271 272 273 270 273 278 279 278 280 280 282 281 282 281 280 277 282 288 295 299 289 290 286 286 293 289 285 289 290 289 285 280 277 275 274 269 264
193 206 214 217 224 230 239 244 251 256 258 269 279 285 287 287 287 288 280 277 274 273 273 275 277 279 279 280 281 282 283 283 281 283 290 291 292 287 279 269 264 264 265 265 268 270 270 266 265 267 270 269 268 271 271 270 268 270 271 272 275 275 277 282 284 284 286 286 283 281 280 287 302 292 285 289 295 295 296 292 283 276 273 273 271
196 204 224 216 222 225 232 237 246 251 259 269 281 284 284 285 289 287 277 272 272 270 268 268 270 273 280 281 281 281 282 283 283 287 285 286 286 283 279 269 262 260 257 254 254 257 262 264 265 264 262 260 256 258 255 252 255 258 261 264 266 273 283 286 286 291 284 283 277 278 281 285 299 293 287 287 286 282 279 276 285 284 279 274 273
194 205 204 213 217 223 228 231 244 257 262 271 278 280 283 285 290 276 270 267 265 266 269 272 275 273 274 274 278 283 286 284 284 285 288 289 288 281 277 276 273 267 259 257 260 266 268 266 267 264 267 271 272 273 274 275 275 279 284 283 282 290 285 288 287 288 285 284 276 273 280 285 297 294 290 292 290 286 283 280 275 278 282 279 276
205 201 205 214 220 223 223 230 235 252 259 265 272 280 282 281 277 273 269 267 269 268 275 271 271 274 275 274 273 278 281 282 283 286 287 291 288 288 286 284 282 275 275 272 273 268 270 268 271 271 271 274 277 280 280 279 280 281 281 281 286 287 281 280 283 284 283 278 276 279 278 276 290 286 289 291 291 284 286 288 287 275 271 271 270
207 199 209 221 219 227 221 230 241 248 260 264 272 278 279 277 276 266 263 268 269 272 277 280 277 274 277 276 276 276 277 281 285 287 291 293 291 287 284 282 278 276 273 281 275 277 275 271 269 270 266 269 274 274 273 274 273 273 270 270 274 272 275 276 277 284 282 272 273 274 274 280 285 284 295 300 293 284 279 279 281 292 303 298 283